User: anonymous
Location: Mentone
(34.5413°N, 85.5351°W)
Time: 06:34:28
(UTC-05:00)
Language:

Cosmos 2026 Rocket - Orbit

View from above orbital plane
View from above orbital plane
View from above satellite
View from above satellite

Ground track
Ground track

The orbit data is extracted from the following two-line orbital elements,

1 20046U 89042B   14243.43915885  .00000026  00000-0  10746-4 0  3491
2 20046 082.9416 343.7990 0042831 052.2145 356.5625 13.77973590268678
Epoch (UTC): 31 August 2014 10:32:23
Eccentricity: 0.0042831
inclination: 82.9416°
perigee height: 939 km
apogee height: 1002 km
right ascension of ascending node: 343.7990°
argument of perigee: 52.2145°
revolutions per day: 13.77973590
mean anomaly at epoch: 356.5625°
orbit number at epoch: 26867

The dashed part of the orbit path shows where the satellite is in the earth's shadow,  

DLR